Regional Weather Roundup
Issued by NWS

Home | Current Version | Previous Version | Text Only | Print | Product List | Glossary On
Versions: 1 2 3 4 5 6 7 8 9 10 11 12 13 14 15 16 17 18 19 20 21 22 23 24 25 26 27 28 29 30 31 32 33 34 35 36 37 38 39 40 41 42 43 44 45 46 47 48 49 50
000
ASUS43 KOAX 290802
RWRNE
WEATHER ROUNDUP FOR NEBRASKA
NATIONAL WEATHER SERVICE OMAHA NE
300 AM CDT FRI MAY 29 2015

NOTES: SATELLITE DATA IS BEING USED TO AUGMENT CLOUD COVER ABOVE
       12000 FEET.
       "FAIR" INDICATES FEW OR NO CLOUDS BELOW 12,000 FEET WITH NO
       SIGNIFICANT WEATHER AND/OR OBSTRUCTIONS TO VISIBILITY.

  * THESE STATIONS DO NOT REPORT WEATHER SUCH AS RAIN...SNOW OR FOG.

NEZ001>004-019>022-054>056-290900-
NEBRASKA PANHANDLE

CITY           SKY/WX    TMP DP  RH WIND       PRES   REMARKS
SCOTTSBLUFF    MOCLDY    53  50  89 NW6       30.07R
ALLIANCE       CLOUDY    53  50  89 NW7       30.05R
CHADRON        CLOUDY    54  51  90 SW8       30.03F
KIMBALL          N/A    N/A N/A N/A MISG        N/A
SIDNEY         CLOUDY    53  50  89 NW13      30.06F
$$

NEZ057>060-069>072-079>082-290900-
SOUTHWEST NEBRASKA

CITY           SKY/WX    TMP DP  RH WIND       PRES   REMARKS
NORTH PLATTE   CLOUDY    56  54  93 W5        29.96R
IMPERIAL       CLOUDY    54  51  90 NW6       29.99F
LEXINGTON      CLOUDY    57  55  91 CALM      29.94F
MCCOOK         CLOUDY    55  53  93 SW7       29.97F
$$

NEZ005>010-023>029-035>040-094-290900-
NORTH CENTRAL NEBRASKA

CITY           SKY/WX    TMP DP  RH WIND       PRES   REMARKS
VALENTINE      CLOUDY    57  54  89 W13       29.94S
AINSWORTH      CLOUDY    58  55  89 NW9       29.93R
BROKEN BOW     LGT RAIN  60  57  89 CALM      29.91F
ORD            CLOUDY    58  56  93 SW3       29.90F
$$

NEZ041-046>049-061>064-073>077-083>087-290900-
SOUTH CENTRAL NEBRASKA

CITY           SKY/WX    TMP DP  RH WIND       PRES   REMARKS
GRAND ISLAND   LGT RAIN  62  59  90 W6        29.90F
HASTINGS       LGT RAIN  61  59  93 N3        29.89F
KEARNEY *      CLOUDY    61  55  82 W12       29.94R
$$

NEZ011>018-030>034-042>045-290900-
NORTHEAST NEBRASKA

CITY           SKY/WX    TMP DP  RH WIND       PRES   REMARKS
NORFOLK        LGT RAIN  64  59  83 S14       29.88R
BLAIR          CLOUDY    65  62  87 S12       29.91S
COLUMBUS *     CLOUDY    63  57  82 SW5       29.90S
FREMONT        CLOUDY    66  64  92 SE3       29.90F
TEKAMAH        TSTM      67  64  90 S13       29.90S FOG
$$

NEZ050>053-065>068-078-088>093-290900-
SOUTHEAST NEBRASKA

CITY           SKY/WX    TMP DP  RH WIND       PRES   REMARKS
LINCOLN        CLOUDY    67  64  90 E6        29.86F
OMAHA EPPLEY   CLOUDY    67  64  90 S10       29.91F
FALLS CITY     CLOUDY    65  63  93 S8        29.92F
NEBRASKA CITY  MOCLDY    64  63  96 S12       29.92F
PLATTSMOUTH    MOCLDY    65  62  89 S9        29.91S
$$

NEZ044-045-051>053-067-290900-
OMAHA AREA

CITY           SKY/WX    TMP DP  RH WIND       PRES   REMARKS
OMAHA EPPLEY   CLOUDY    67  64  90 S10       29.91F
BLAIR          CLOUDY    65  62  87 S12       29.91S
FREMONT        CLOUDY    66  64  92 SE3       29.90F
OFFUTT AFB     MOCLDY    66  64  92 SE3       29.91S
PLATTSMOUTH    MOCLDY    65  62  89 S9        29.91S
WAHOO          FAIR      66  64  90 SE6       29.88F
$$


USA.gov is the U.S. government's official web portal to all federal, state and local government web resources and services.